Location: *
(46.4000°N, 12.6667°E)
Time: 09:52:21
(UTC+00:00)

X-37B - Pass Details

Date: 09 December 2021
Orbit: 334 x 337 km, 45.0° (Epoch: 11 January)

Event Time Altitude Azimuth Distance (km) Brightness Sun altitude
Rises 17:54:27 0° 256° (WSW) 2,101 5.7 -25.2°
Reaches altitude 10° 17:56:28 10° 253° (WSW) 1,266 4.2 -25.6°
Enters shadow 17:57:14 17° 250° (WSW) 960 3.4 -25.7°
